STARLINK-1695, 46329

Orbit data source: Space-Track

STARLINK-1695, 46329 is a payload satellite owned by SpaceX/Seattle (US) in LEO that was launched on Thu, 03 Sep 2020 UTC via an FALCON 9 launch vehicle from the Air Force Eastern Test Range (AFETR). Payload-class satellites include a variety of spacecraft equipped with specific instruments for various scientific and technological missions. These include communications satellites like Starlink; space stations such as the ISS; scientific satellites like the Hubble; Earth observation satellites from companies like Planet Labs, Umbra, and HawkEye 360; GPS; miniature CubeSats for education and research; and military/defense satellites.

Loading next visibility...
Identifier
46329, 2020-062E
Orbit
LEO
Last TLE update
12 hours ago
Origin
Manufacturer
SpaceX/Seattle
Mission
Operational Commercial Communications
Bus & Motor
STARLINK, Unknown motor
Mass
260 kg wet, ~248 kg dry
Launch date (UTC)
2020-09-03 (5 years ago)
Launch vehicle
FALCON 9
Launch site
Air Force Eastern Test Range (AFETR)
Object type
Payload
Rocket body
Debris
Shape & HBR
Box + 1 Pan, 8.86 m
Radar Cross Section
13.562 m², Large (>1 m²)

Expand to show TLE details & history

TLE from 12 hours ago
0 STARLINK-1695
1 46329U 20062E   25188.79917020  .00000220  00000-0  33673-4 0  9993
2 46329  53.0566  15.9730 0001407  89.5408 270.5742 15.06393489267675
Epoch: 2025-07-07T19:10Z
TLE epoch observation values (Epoch: 2025-07-07T19:10:48.305Z)
Latitude
-0.00003°
Longitude
162.26838°
Altitude
548.101 km
Speed
7.589 km/s
True Right ascension
01h 03m 53s
True Declination
0° 00' 00"
Sunlit
Object was in daylight at epoch
Visualization orbit readout
Latitude
-49.92284°
Longitude
42.70609°
Altitude
565.375 km
Speed
7.578 km/s
Apparent Right ascension
11h 48m 04s
Apparent Declination
-72° 22' 29"
Sunlit
Object is in full shadow
Visualization observer readout
Local Sidereal Time
19:32:10
Azimuth
202.849° SW
Elevation
-45.516°
Doppler factor
1
Orbital elements
Apogee altitude
548.476 km
Perigee altitude
546.527 km
Semi-major axis
6,925.639 km
Eccentricity
0.00014
Inclination
53.0566°
RAAN
15.973°
Arg. of periapsis
89.5408°
True anomaly
Unknown
Mean anomaly
270.5742°
Eccentric anomaly
Unknown
Mean motion
3.76577 °/min
Orbital period
95.6 mins
BSTAR
0.000033673
Loading maneuver chart data...
Loading SW <> Apogee altitude chart data...
Loading historical data...
Loading historical data...
Loading historical data...
Loading historical data...
Loading historical data...
Loading historical data...
Loading historical data...

STARLINK-1695 Visibility forecast

Observer location: undefined°, undefined°

Span
Click to sort rows by Start time (UTC) header in descending order
Start Az.
Max El. time (UTC)
Max El. Az.
Max El.
End time (UTC)
End Az.
6 mins2025-07-08 14:26:37.622Z192.059° SSW2025-07-08 14:29:37.622Z132.311° SE29.03°2025-07-08 14:32:37.622Z71.982° E
6 mins2025-07-08 16:06:37.622Z270.286° WNW2025-07-08 16:08:37.622Z311.361° NW30.174°2025-07-08 16:12:37.622Z35.84° NE
6 mins2025-07-08 21:08:37.622Z333.881° NNW2025-07-08 21:10:37.622Z19.4° NNE31.323°2025-07-08 21:14:37.622Z100.357° ESE
5 mins2025-07-08 22:48:37.622Z272.873° WNW2025-07-08 22:50:37.622Z221.389° SW27.934°2025-07-08 22:53:37.622Z167.754° S
|